Location: Briis
(48.6240°N, 2.1211°E)
Time: 18:56:20
(UTC+00:00)

CZ-4C R/B - Pass Details

Date: 25 September 2020
Orbit: 627 x 1375 km, 63.4° (Epoch: 21 October)

Event Time Altitude Azimuth Distance (km) Brightness Sun altitude
Rises 04:03:04 0° 318° (NW) 3,727 5.3 -17.0°
Reaches altitude 10° 04:05:32 10° 321° (NW) 2,877 4.8 -16.6°
Maximum altitude 04:12:29 66° 44° (NE) 1,299 3.3 -15.5°
Drops below altitude 10° 04:20:37 10° 126° (SE) 3,342 5.8 -14.3°
Sets 04:23:39 0° 129° (SE) 4,363 6.4 -13.8°
